Погода в Бендер-Энзели

Иран     37°28′18″N   49°28′00″E
темп.,
°C
ветер,
м/с
пор.,
м/с
влажн.,
%
обл.,
%
осадки,
мм/ч
давл.,
гПа
погр.,
м
27 января, ср
ср2700:30+9юв22680 0.0 102479
03:30+9юв22660 0.0 1023100
06:30+9юв22650 0.0 1023106
09:30+10юв22560 0.0 1023134
12:30+12всв11530 0.0 1021187
15:30+13всв33671 0.0 1019146
18:30+11вюв34720 0.0 101971
21:30+10вюв22725 0.0 101863
28 января, чт
чт2800:30+10юв127259 0.0 101830
03:30+10юв226651 0.0 101639
06:30+11юв2365100 0.0 101546
09:30+12вюв1162100 0.0 101526
12:30+15всв125494 0.0 1013111
15:30+15св345747 0.0 101142
18:30+14зсз2265100 0.0 101329
21:30+14ююз236099 0.0 101323
29 января, пт
пт2900:30+14ю56594 0.0 101368
03:30+14ююз57562 0.0 101171
06:30+13зсз565916 0.0 101349
09:30+12сз79838 0.0 1013228
12:30+11ссз568240 0.0 1012267
15:30+11с458437 0.0 1011263
18:30+11ссз578931 0.0 1013454
21:30+10с348666 0.0 1014448
30 января, сб
сб3000:30+10с4584100 0.1 1014459
03:30+10с5684100 0.2 1013515
06:30+10ссв4583100 0.3 1013553
09:30+9св4584100 0.8 1014518
12:30+9св3384100 0.4 1013428
15:30+9св3484100 0.5 1012443
18:30+9св2283100 0.1 1014335
21:30+9юв1284100 0.1 1015254
31 января, вс
вс3100:30+9вюв338859 0.0 1015204
03:30+9юв348730 0.0 1015182
06:30+9юв45820 0.0 1014146
09:30+11ю46630 0.0 1015186
12:30+15ююз23560 0.0 1014242
15:30+15ююз12585 0.0 1014195
18:30+13юв126629 0.0 101626
21:30+12ююз226539 0.0 101822